DECAYED

STARLINK-2163, 47749 (Decayed)

Orbit data source: Space-Track

STARLINK-2163, 47749 was a payload satellite owned by SpaceX/Seattle (US) in LEO that was launched on Thu, 04 Mar 2021 UTC via an FALCON 9 launch vehicle from the Air Force Eastern Test Range (AFETR). Payload-class satellites include a variety of spacecraft equipped with specific instruments for various scientific and technological missions. These include communications satellites like Starlink; space stations such as the ISS; scientific satellites like the Hubble; Earth observation satellites from companies like Planet Labs, Umbra, and HawkEye 360; GPS; miniature CubeSats for education and research; and military/defense satellites.

Not visible in the next 10 days
Identifier
47749, 2021-017AD
Orbit
Decayed
Country
Flag of USUS
Related business
Manufacturer
SpaceX/Seattle
Mission
Decayed Commercial Communications
Bus & Motor
STARLINK, Unknown motor
Mass
260 kg wet, ~248 kg dry
Launch date (UTC)
2021-03-04 (5 years ago)
Launch vehicle
FALCON 9
Launch site
Air Force Eastern Test Range (AFETR)
Object type
Payload
Rocket body
Debris
Shape & HBR
Box + 1 Pan, 10.1 m
Radar Cross Section
13.562 m², Large (>1 m²)

Expand to show TLE details & history
Last TLE update: 2 weeks ago

TLE from 2 weeks ago
0 STARLINK-2163
1 47749U 21017AD  26222.33764105  .11752851  12515-4  20289-3 0  9997
2 47749  53.1279 156.9600 0006893 246.6732 113.3594 16.47439922302102
Epoch: 2026-08-10T08:06Z
TLE epoch observation values (Epoch: 2026-08-10T08:06:12.186Z)
Latitude
-0.00002°
Longitude
76.58749°
Altitude
148.813 km
Speed
7.817 km/s
True Right ascension
10h 27m 50s
True Declination
0° 00' 00"
Sunlit
Object was in daylight at epoch
Visualization orbit readout
Latitude
Unknown
Longitude
Unknown
Altitude
Unknown
Speed
Unknown
Apparent Right ascension
Unknown
Apparent Declination
Unknown
Sunlit
N/A
Visualization observer readout
Local Sidereal Time
12:09:42
Azimuth
Unknown
Elevation
Unknown
Doppler factor
Unknown
Orbital elements
Apogee altitude
150.858 km
Perigee altitude
141.863 km
Semi-major axis
6,524.497 km
Eccentricity
0.00069
Inclination
53.1279°
RAAN
156.96°
Arg. of periapsis
246.6732°
True anomaly
113.43189°
Mean anomaly
113.3594°
Eccentric anomaly
113.39565°
Mean motion
4.11834 °/min
Orbital period
87.41 mins
BSTAR
0.00020289
Loading maneuver chart data...
Computing Atmospheric mass density...

Documentation

Showing up to 5 results
|